User: anonymous   Login
Location: Unspecified
(0.0000°N, 0.0000°E)
Time: 06:50:57
(UTC+00:00)
Language:

LilacSat-2 - Orbit

View from above orbital plane
View from above orbital plane
View from above satellite
View from above satellite

Ground track
Ground track

The orbit data is extracted from the following two-line orbital elements,

1 40908U 15049K   17087.93603029 +.00000884 +00000-0 +53541-4 0  9997
2 40908 097.4630 094.6693 0017595 124.9950 235.2936 15.13006589084039
Epoch (UTC): 28 March 2017 22:27:53
Eccentricity: 0.0017595
inclination: 97.4630°
perigee height: 515 km
apogee height: 539 km
right ascension of ascending node: 94.6693°
argument of perigee: 124.9950°
revolutions per day: 15.13006589
mean anomaly at epoch: 235.2936°
orbit number at epoch: 8403

The dashed part of the orbit path shows where the satellite is in the earth's shadow,  

DLR